Current weather by "City, St" or "zip code"  
 

Current Conditions: Fulton, Oswego County Airport, NY

Fair


71.0 F

Last Updated on May 21 2022, 3:54 am EDT
Humidity: 76%
Wind Speed: S 8.1 mph
Barometer 29.80 in
Dewpoint: 63.0 F
Visibility: 10.00 mi
Precip: --
Heat Index: NA
Wind Chill: NA
Current conditions at:

Fulton, Oswego County Airport, NY (KFZY)

Lat: 43.35083 Lon: 76.38806

Local Radar Image active severe weather and emergency alerts image image weather storm and storm spotter reports image weather observation monitoring service image
Local
Radar
Active
Alerts
Storm Reports Obs
Monitoring

Sign-up For Email & Text Message Weather Alert Notification Services



Advertise Here

Observation History for Fulton, Oswego County Airport, NY


Time Wind
(mph)
Vis
(mi)
Weather Precip (in) Temperature (F) Relative
Humidity
Wind
Chill
(F)
Heat
Index
(F)
Pressure
Air Dwpt altimeter
(in)
sea level
(mb)
Rmks
3:54 am EDT S 8.1 10.00 Fair -- 71.0 63.0 76% NA NA 29.80 1008.9
2:54 am EDT S 6.9 10.00 Fair -- 69.0 62.1 78% NA NA 29.79 1008.5
1:54 am EDT 3.5 10.00 Fair -- 69.0 62.1 78% NA NA 29.80 1008.7
12:54 am EDT 3.5 10.00 A Few Clouds -- 69.0 62.1 78% NA NA 29.81 1009.1
11:54 pm EDT 3.5 10.00 Fair -- 69.0 62.1 78% NA NA 29.82 1009.3
10:54 pm EDT 3.5 10.00 Fair -- 70.0 62.1 76% NA NA 29.82 1009.5
9:54 pm EDT S 8.1 G 18.4 10.00 Fair -- 73.0 62.1 69% NA NA 29.78 1008.2
8:54 pm EDT S 9.2 10.00 Fair -- 74.0 61.0 64% NA NA 29.75 1007.4
7:54 pm EDT S 11.5 10.00 Fair -- 77.0 61.0 58% NA NA 29.73 1006.6
5:54 pm EDT S 10.4 G 20.7 10.00 Fair -- 82.0 60.1 47% NA 82 29.71 1006.0
4:54 pm EDT S 9.2 G 17.3 10.00 Fair -- 82.0 62.1 51% NA 83 29.70 1005.6
3:54 pm EDT S 10.4 G 20.7 10.00 Fair -- 81.0 62.1 53% NA 82 29.73 1006.4
2:54 pm EDT S 8.1 G 23.0 10.00 Fair Trace 78.0 62.1 58% NA NA 29.74 1006.9
11:54 am EDT 5.8 10.00 Mostly Cloudy -- 74.0 59.0 60% NA NA 29.77 1008.0
10:54 am EDT S 6.9 10.00 A Few Clouds -- 71.0 57.0 61% NA NA 29.77 1008.0
9:54 am EDT SE 10.4 10.00 Partly Cloudy -- 67.0 55.0 66% NA NA 29.79 1008.6
8:54 am EDT SE 8.1 10.00 Fair -- 63.0 53.1 70% 63 NA 29.79 1008.7
7:54 am EDT SE 4.6 10.00 Mostly Cloudy -- 57.0 51.1 81% 57 NA 29.79 1008.8
5:54 am EDT 3.5 10.00 Mostly Cloudy -- 53.0 48.9 86% NA NA 29.80 1009.0

Regional Weather Observation


Watertown, Watertown International Airport, NY (KART)

Fair
73.0 F

Syracuse, Syracuse Hancock International Airport, NY (KSYR)

A Few Clouds
71.0 F

Williamson-Sodus Airport, NY (KSDC)

Fair
70.0 F

Rochester, Greater Rochester International Airport, NY (KROC)

Fair
73.0 F

Skaneateles Aero Drome, NY (K6B9)

A Few Clouds
72.0 F

Griffiss Air Force Base / Rome, NY (KRME)

Fair
67.0 F

Advertise Here


Advertise Here